Theta_e
287 286 286 285 284 283 283 282 282 282 281 281 280 280 280 280 279 279 279 278 279 278 278 278 278 278 277 277 277 277 277 276 277 276 276 275 275 275 275 275 274 274 275 275 275 275 275 274 275 276 276 277 276 275 275 275 275 275 274 274 273 273 273 271 270 270 272 275 275 275 277 278 277 279 279 281 282 284 287 289 292 294 294 296 296
286 286 285 284 283 283 282 282 281 281 280 279 279 279 279 279 278 278 278 278 278 277 277 277 277 277 277 276 276 276 276 276 275 275 275 274 274 275 274 274 274 273 274 273 274 274 274 274 274 274 275 275 275 274 274 274 274 274 274 273 273 273 274 272 271 270 270 273 274 276 276 278 276 280 280 280 282 284 286 288 291 294 294 295 296
286 285 284 283 282 282 281 280 280 279 279 278 278 278 278 278 278 277 277 277 277 277 277 277 277 276 276 275 275 275 275 275 275 274 274 274 273 273 274 273 273 273 272 273 273 273 273 273 273 274 276 273 273 273 274 273 274 273 273 273 273 273 274 274 272 271 271 272 274 274 275 277 277 278 280 283 285 286 286 287 290 293 294 295 296
285 284 283 282 282 281 280 279 279 278 278 278 277 277 277 277 277 276 276 277 276 276 276 276 276 275 274 274 274 274 274 274 274 274 273 273 273 273 273 273 273 272 272 272 273 273 273 273 273 273 274 272 272 272 273 273 273 273 273 273 273 273 273 274 274 273 272 271 273 274 275 275 277 279 281 282 283 285 287 290 292 292 294 295 296
284 283 282 281 281 280 279 278 278 277 277 277 276 277 276 276 276 276 276 275 276 275 275 275 274 274 273 273 274 273 273 273 273 273 273 273 273 273 272 273 273 273 273 273 274 273 273 272 273 272 272 271 272 272 272 272 273 273 272 273 273 273 274 274 273 273 272 272 273 275 276 276 278 278 280 280 282 285 288 290 290 290 291 294 295
283 282 281 280 279 278 278 277 277 276 276 276 276 276 276 276 275 275 275 275 275 275 274 274 274 273 273 273 273 273 273 273 273 272 272 273 273 273 273 273 272 272 272 272 272 272 272 273 273 272 271 271 271 271 272 272 272 272 272 273 273 274 273 274 274 273 273 273 273 273 275 275 276 278 280 282 282 282 284 287 289 290 291 293 294
282 281 280 279 278 277 277 276 276 276 276 276 276 275 275 275 275 274 275 274 274 273 273 273 273 273 273 273 272 272 272 272 272 272 272 272 272 272 272 272 272 272 272 272 272 272 272 272 272 272 271 271 271 271 272 272 272 272 273 273 273 273 273 273 274 273 273 273 273 274 274 275 276 276 280 284 285 285 284 286 287 290 291 292 292
280 280 279 278 277 277 276 276 276 276 276 275 275 275 274 274 274 274 274 273 272 272 272 272 272 272 272 272 272 272 272 272 272 273 273 272 272 272 272 272 272 272 272 272 272 272 273 272 272 272 272 272 273 273 273 272 273 272 273 273 273 273 273 273 273 273 273 273 273 273 274 274 275 276 278 281 282 284 286 286 285 287 289 291 292
279 279 278 277 277 276 276 276 276 275 275 275 274 274 274 273 273 273 272 272 272 271 271 271 271 271 271 272 272 272 272 272 272 272 272 272 272 272 273 273 273 273 273 273 273 273 273 273 273 274 274 276 277 277 277 277 274 272 273 274 273 273 273 273 273 273 273 273 272 274 273 273 274 275 275 277 278 281 286 287 286 288 290 290 292
278 278 277 277 276 276 275 275 274 274 274 273 273 273 273 272 272 271 271 271 270 270 270 270 270 270 270 271 272 272 272 272 273 274 275 273 273 274 274 273 273 273 273 273 273 274 274 275 275 277 278 278 278 279 279 280 280 278 275 275 274 274 273 273 273 273 273 272 272 272 272 272 274 275 275 276 279 283 286 287 286 288 289 289 291
278 277 276 276 276 275 274 274 274 273 273 273 273 272 271 271 270 270 269 269 269 269 269 269 270 270 271 271 271 271 271 272 274 275 276 277 275 274 274 274 274 274 274 274 274 274 275 275 276 277 277 278 277 279 280 280 281 281 281 281 280 277 275 274 273 273 272 272 273 273 273 273 274 276 277 278 280 283 286 287 288 288 286 286 285
277 277 276 276 275 274 274 273 273 273 272 272 271 270 270 269 268 268 268 268 268 269 269 269 270 270 271 271 270 271 271 273 274 275 276 277 277 275 274 274 274 275 275 274 274 274 274 274 275 275 275 275 275 275 277 279 280 280 281 281 281 281 281 278 276 275 274 273 273 273 273 274 275 276 277 279 279 282 285 287 287 286 286 286 286
277 276 276 275 274 274 273 273 272 271 271 270 269 268 267 267 266 266 266 267 268 268 268 269 269 270 270 269 269 270 270 272 274 275 276 276 277 277 275 275 275 274 274 274 274 274 274 273 273 274 274 277 276 275 275 275 278 279 280 280 281 281 282 282 282 279 278 277 276 275 276 276 276 277 279 279 281 282 284 285 286 286 287 286 286
276 276 274 274 273 273 272 272 271 270 269 268 267 266 266 266 266 267 267 267 267 267 268 268 269 269 269 269 269 269 269 271 273 275 276 277 277 277 275 275 274 274 274 274 274 274 273 273 273 273 274 274 274 274 274 275 275 275 276 277 277 279 280 281 281 281 281 278 277 276 278 278 277 278 280 281 281 280 281 283 285 285 285 285 287
275 274 273 273 273 272 271 270 269 268 267 267 266 266 265 265 266 266 266 267 267 267 267 267 268 268 268 268 268 268 268 272 274 275 276 277 278 277 275 274 274 274 274 274 274 274 274 274 274 273 274 274 275 275 275 275 275 275 275 276 276 277 278 278 278 278 278 279 278 278 278 279 279 280 281 282 282 282 284 284 285 286 286 287 286
274 273 272 272 271 270 269 268 268 267 266 265 265 265 265 265 265 266 266 267 267 268 267 268 267 267 267 267 267 267 268 272 274 275 276 277 278 275 274 273 273 273 273 274 274 274 274 274 274 274 274 274 276 279 278 276 275 275 275 276 277 277 278 280 281 282 280 279 278 278 279 280 282 281 282 282 283 284 285 286 286 285 284 283 282
273 272 271 270 270 269 269 267 267 266 265 265 265 265 265 265 265 266 266 266 266 267 266 267 267 267 266 266 266 266 267 270 273 275 276 277 276 273 273 273 273 273 273 274 274 275 275 275 275 274 274 274 277 279 279 279 275 275 275 275 276 276 277 279 282 283 283 283 283 283 284 284 285 286 286 287 285 286 285 284 283 285 283 282 283
272 271 270 269 269 268 268 267 266 265 265 265 265 265 265 265 265 266 265 265 265 266 266 266 266 266 266 266 266 266 267 270 273 274 275 276 276 273 273 273 272 273 273 274 274 274 275 277 276 274 273 273 277 279 279 278 275 275 275 275 275 276 277 279 280 280 283 283 283 283 284 284 285 286 287 287 287 287 284 282 284 285 283 283 282
271 270 270 269 268 267 266 266 266 265 264 265 264 264 264 265 265 265 265 265 265 265 265 265 265 266 266 266 268 268 268 270 273 274 275 276 275 273 273 272 271 272 272 273 274 274 274 275 276 275 275 275 278 279 279 278 275 275 275 275 274 275 276 278 279 279 279 279 279 280 281 283 283 283 284 286 286 286 285 285 286 284 283 283 283
271 270 268 267 266 266 266 265 265 264 264 264 264 264 264 264 264 264 264 265 264 265 265 265 264 265 266 267 267 268 268 269 271 274 275 275 276 274 273 272 271 271 272 272 272 273 273 273 273 276 277 277 278 278 279 279 276 275 275 274 274 274 277 278 279 279 279 279 279 280 280 282 283 284 284 284 285 285 286 286 286 285 284 283 283
269 268 266 265 265 264 264 264 263 263 263 263 263 263 263 264 264 263 263 263 264 264 264 264 264 265 267 268 268 268 269 269 270 274 274 275 275 275 272 272 272 272 272 272 272 271 271 271 272 274 276 277 277 278 279 280 280 277 277 276 276 277 279 278 279 281 280 279 279 280 280 281 281 282 284 285 285 285 286 286 286 286 285 284 283
267 266 265 264 263 263 263 263 262 262 262 262 262 262 263 263 263 262 263 263 262 262 263 264 265 266 267 267 268 269 270 271 270 272 273 274 275 276 273 273 274 273 272 271 271 270 270 270 270 272 276 277 278 279 279 279 280 277 277 280 282 282 280 279 280 280 280 279 279 279 280 280 280 281 282 284 285 286 286 286 287 287 287 287 285
266 265 264 263 262 262 261 261 260 260 260 261 261 261 262 261 261 261 262 262 262 262 263 264 265 265 266 268 269 269 269 270 272 271 273 274 275 276 276 275 276 274 271 270 270 270 270 270 271 274 277 277 278 278 278 279 278 276 279 281 282 282 282 280 280 280 280 280 279 279 279 280 280 281 282 282 284 285 286 286 287 287 287 287 288
265 263 262 261 261 260 260 260 260 260 260 260 260 261 261 261 261 261 262 262 263 263 265 265 265 266 266 267 267 268 269 269 270 272 271 274 275 276 276 276 276 273 272 270 270 270 270 270 272 276 277 276 277 277 277 276 275 278 279 280 281 282 281 280 279 279 280 279 279 279 279 281 281 282 283 284 284 285 286 287 287 287 287 288 288
263 262 261 260 260 260 259 259 259 260 260 260 260 260 261 261 261 262 262 263 264 264 265 265 265 265 266 266 266 267 268 268 268 270 272 273 275 275 275 276 275 275 271 270 270 270 273 276 276 275 275 275 275 275 274 274 275 276 277 278 278 280 280 279 279 279 279 279 279 279 280 281 282 283 284 285 285 286 286 286 287 287 287 288 288
261 260 260 259 259 259 259 259 259 260 260 260 261 262 261 261 262 263 263 264 264 264 264 265 265 265 265 266 266 266 267 267 268 268 270 272 273 274 274 274 274 274 273 271 273 274 274 274 274 273 273 272 270 270 270 270 274 275 275 275 273 277 280 279 279 279 279 279 280 280 281 282 283 284 285 285 285 285 286 286 286 286 286 286 286
261 260 259 259 259 259 259 259 259 259 260 261 261 262 263 263 264 263 264 264 263 264 265 265 265 265 265 265 265 266 266 267 267 268 270 271 271 271 271 270 272 272 270 269 271 270 269 270 270 272 272 273 272 272 272 271 270 270 270 271 272 273 275 280 280 280 280 280 281 281 282 283 284 284 284 285 285 286 286 286 286 285 286 286 286
260 259 259 258 258 259 260 260 259 259 259 260 261 262 262 263 263 264 264 264 263 264 264 265 265 265 264 265 265 265 265 266 267 268 270 270 270 271 270 270 269 269 268 269 269 268 267 269 269 267 267 267 267 267 268 268 268 269 269 269 270 272 274 276 279 282 282 282 282 283 283 283 283 283 284 285 285 286 286 286 285 285 285 285 285
260 259 259 258 258 260 261 260 261 260 260 261 262 263 262 263 264 264 265 265 265 265 265 265 266 265 265 265 265 264 265 265 267 272 271 273 271 270 269 269 269 268 270 273 268 266 266 265 265 265 265 265 265 265 266 266 267 267 268 268 269 270 270 272 273 276 280 282 282 282 282 282 282 283 284 284 285 285 286 285 285 285 285 285 285
259 259 259 259 259 260 260 260 261 261 261 261 261 261 263 266 266 264 264 267 268 269 269 266 266 266 266 266 267 265 265 267 272 273 273 273 273 273 273 272 272 270 272 272 268 264 263 263 264 264 264 264 264 264 265 265 266 266 267 269 268 268 269 270 271 273 274 275 278 282 282 282 282 283 283 283 284 285 285 285 285 285 285 285 285
260 259 259 259 259 260 260 260 261 261 261 261 261 261 261 264 267 268 267 267 268 269 269 269 269 269 268 266 267 269 270 272 272 272 272 272 273 273 272 271 271 272 272 266 263 262 262 262 263 263 264 264 264 264 265 265 265 265 266 267 267 268 268 269 270 271 271 272 275 279 282 283 283 283 283 284 284 284 285 286 285 285 285 285 286
260 260 260 260 260 260 260 260 261 261 261 262 262 262 262 261 263 267 268 267 268 268 268 268 268 268 269 268 267 267 269 271 272 271 271 272 272 272 271 270 270 271 270 268 261 261 261 261 262 262 263 263 263 264 265 265 265 265 265 265 266 267 268 268 269 269 269 271 273 276 278 282 284 284 284 284 284 284 285 285 285 285 285 286 287
261 260 260 260 260 261 261 260 261 261 261 261 261 263 263 262 262 263 265 266 267 268 267 268 268 268 268 268 269 269 269 271 271 271 271 271 271 271 270 269 269 270 268 262 260 260 260 261 261 262 262 262 263 264 264 265 265 265 266 265 265 267 268 268 269 269 270 270 272 273 275 278 282 284 284 284 284 284 284 284 285 285 286 286 288
261 261 260 260 260 261 261 261 261 261 261 262 261 262 262 263 262 262 261 261 263 265 265 266 266 266 267 267 268 269 269 270 270 270 270 270 270 269 268 264 267 268 266 260 260 259 260 260 261 261 262 263 263 264 264 265 265 266 266 266 266 267 268 268 268 268 269 269 270 271 273 275 279 282 284 284 285 285 284 285 285 285 286 287 289
261 260 260 260 261 261 261 262 261 261 261 260 260 259 259 258 258 259 260 260 259 258 258 258 262 265 264 264 267 268 269 269 269 269 269 269 269 268 265 260 259 259 260 260 260 259 259 260 260 261 261 262 263 264 264 264 265 265 265 266 266 267 267 267 267 268 268 268 268 269 271 273 275 278 282 284 284 284 285 285 285 286 286 288 290
261 260 260 261 262 262 262 261 261 261 260 259 259 258 258 258 258 257 256 256 256 256 256 257 255 260 264 264 265 266 268 268 268 268 268 268 267 265 258 258 258 258 258 259 259 259 259 260 260 260 261 262 263 263 264 264 265 265 266 266 266 266 266 267 267 267 268 268 268 269 269 270 272 274 277 281 284 285 285 285 285 286 288 289 290
260 260 260 261 261 261 261 261 260 260 260 258 257 257 257 257 257 256 256 255 255 255 255 255 255 256 260 259 261 263 266 267 266 266 266 266 265 260 258 258 257 257 257 258 258 258 258 259 260 260 261 262 263 263 264 264 265 265 267 266 266 266 266 267 268 267 267 267 267 267 268 268 270 271 274 276 281 284 285 285 286 286 287 289 288
260 260 261 261 260 260 259 259 260 259 257 257 257 257 256 256 256 256 255 254 255 254 254 254 256 254 255 256 260 259 261 263 263 262 262 261 258 257 257 257 257 257 257 257 258 258 258 258 259 260 261 262 262 263 264 264 265 265 266 266 266 266 269 267 267 267 267 266 266 267 267 267 268 270 272 274 277 281 285 286 286 286 288 289 288
261 262 262 262 261 259 259 258 257 256 256 256 256 256 255 255 255 255 254 254 253 253 254 253 254 254 254 256 256 259 259 255 255 254 255 255 256 256 256 256 256 256 257 257 257 258 258 258 259 260 261 262 262 263 264 264 264 265 266 266 266 266 266 266 266 266 266 266 266 266 266 267 268 269 270 272 275 280 284 286 286 286 288 289 289
260 260 261 262 260 259 258 257 256 256 256 255 255 255 255 255 255 254 254 253 253 253 254 253 253 253 253 254 255 259 255 254 253 253 253 254 254 255 255 255 255 255 256 256 256 257 257 258 259 260 260 261 263 263 264 264 264 265 266 266 266 266 266 266 266 266 265 266 266 266 266 266 267 268 269 271 274 278 282 285 286 287 288 289 289
259 259 260 262 260 258 256 256 256 256 255 255 255 255 255 255 254 254 254 254 253 253 253 252 253 252 253 256 262 261 254 252 252 252 253 253 253 254 254 254 255 254 255 255 256 257 257 258 259 259 260 262 263 263 263 264 264 265 266 266 266 266 266 266 266 266 266 266 266 265 266 266 267 267 268 270 274 276 281 285 286 287 288 288 289
259 259 259 259 258 256 256 256 256 255 255 255 255 255 254 253 253 253 253 253 253 253 253 252 252 251 254 260 261 260 253 251 252 252 252 252 252 253 254 254 254 254 254 254 255 256 257 258 258 259 260 262 262 263 263 263 264 264 266 266 266 266 266 266 266 266 265 265 265 265 266 266 267 268 269 271 272 275 280 284 286 287 288 288 288
259 259 258 257 256 256 256 255 255 254 254 254 254 254 253 253 253 253 252 252 252 252 252 252 252 251 251 257 257 257 252 251 252 251 251 252 252 253 253 253 254 254 254 254 255 256 257 257 258 259 261 262 262 263 263 263 264 265 266 266 266 266 266 266 266 266 266 265 265 265 266 266 266 267 268 269 271 274 279 284 286 287 287 288 288
258 257 256 256 256 256 255 254 254 254 254 253 253 252 252 252 252 252 252 251 251 251 251 251 251 250 250 251 252 251 250 250 250 250 250 251 252 252 252 253 253 253 253 254 255 256 257 257 258 259 260 262 262 263 264 264 264 265 267 267 267 267 267 266 266 265 265 265 265 265 265 266 266 266 268 269 271 273 278 283 285 286 287 287 288
257 257 256 256 255 255 254 255 254 253 252 252 252 251 251 252 251 251 251 251 251 251 251 250 250 250 250 249 249 249 249 249 250 250 250 250 251 252 252 252 252 252 253 254 255 255 256 257 257 258 259 261 262 263 264 264 265 266 268 268 267 267 267 267 266 266 266 265 265 265 265 265 265 266 267 269 271 273 277 281 285 285 286 287 287
257 256 256 255 254 254 254 253 252 252 252 252 251 251 251 251 251 251 251 251 251 251 250 250 249 249 249 249 249 250 249 248 249 250 250 250 251 251 252 252 252 252 253 253 254 255 256 257 257 258 259 260 262 263 264 265 265 267 269 269 268 268 268 268 268 267 266 266 265 265 265 265 265 266 268 269 270 273 277 281 285 286 286 287 287
256 256 255 255 254 253 253 252 252 252 253 252 252 251 251 251 251 250 250 250 250 250 250 249 249 249 249 249 249 248 249 249 249 249 248 248 249 250 251 251 251 251 252 253 254 255 255 256 257 258 259 260 262 263 264 265 265 268 269 269 269 269 269 269 268 267 266 266 266 265 265 265 265 266 267 268 270 272 276 281 285 285 286 287 287
255 255 255 254 253 253 252 252 252 252 252 252 252 251 251 250 250 250 249 248 249 249 249 248 248 249 249 249 249 249 249 249 249 249 250 250 250 250 250 250 250 251 251 252 254 255 255 256 257 258 259 261 262 264 265 265 266 269 269 270 270 270 269 269 268 267 267 266 266 265 265 265 265 265 266 267 268 270 273 279 284 285 286 286 287
255 255 254 254 253 252 252 252 252 252 252 252 251 251 250 250 250 250 249 249 249 249 249 249 249 249 248 248 249 249 249 249 248 249 249 250 249 249 250 250 250 250 251 252 253 254 255 256 257 258 259 261 263 264 265 265 267 269 269 270 270 270 269 269 268 267 267 266 266 266 265 265 265 265 266 266 267 269 271 276 282 285 285 285 286
256 255 254 254 253 253 253 253 253 253 252 252 252 251 251 250 250 250 250 249 249 249 249 249 248 248 248 248 248 248 248 248 248 249 249 249 250 249 250 249 249 250 250 251 253 254 255 256 256 258 260 261 263 263 264 264 267 269 269 270 270 270 269 269 268 268 267 266 266 265 265 265 265 265 265 265 266 267 269 272 276 281 285 285 285
255 255 255 255 254 254 254 254 254 253 253 253 252 251 251 251 251 250 249 249 250 250 249 249 248 248 248 249 249 248 248 247 248 249 249 249 248 249 249 249 249 249 250 251 252 253 254 255 256 258 260 262 262 263 263 264 268 269 269 270 271 270 270 269 269 268 268 267 266 265 265 265 264 264 264 265 265 266 267 269 272 275 281 285 285
Wind_Speed
14 13 12 12 14 14 13 12 12 10 10 10 9 9 8 8 8 7 6 7 7 7 7 8 8 8 8 8 9 9 9 9 8 7 8 9 9 10 10 11 12 12 12 13 13 14 15 16 16 16 15 18 16 16 17 17 17 16 16 16 17 16 17 17 22 24 22 14 17 17 17 18 21 19 23 21 21 22 26 23 20 16 18 16 14
14 14 12 12 14 13 13 12 11 10 11 10 10 9 9 8 8 7 7 7 7 7 8 7 7 8 8 8 9 10 10 9 9 8 8 9 10 8 9 11 12 13 12 14 13 12 13 15 16 15 15 18 18 19 19 17 17 17 17 17 16 16 16 17 21 22 26 16 16 17 18 17 21 19 20 22 22 20 23 22 17 16 16 16 15
13 12 12 13 14 13 13 12 12 12 12 10 10 9 9 8 8 8 7 6 6 7 7 7 7 7 8 9 9 9 9 9 8 8 9 10 10 10 10 11 12 13 14 14 14 14 15 15 16 16 15 16 18 18 18 19 17 18 19 17 18 18 17 18 19 22 23 21 15 18 16 17 19 20 21 20 19 20 22 21 18 14 13 14 15
13 12 12 13 14 14 13 12 13 12 12 10 11 10 9 8 7 8 7 6 6 6 7 7 7 8 8 9 9 9 9 8 8 8 9 10 11 12 12 12 12 13 14 15 14 14 15 15 15 15 18 19 19 18 17 17 17 17 19 17 19 19 19 18 20 20 20 22 16 15 16 18 18 19 18 20 22 21 19 17 18 18 17 15 15
13 13 14 15 15 14 14 13 13 13 12 10 11 10 9 8 7 8 7 7 6 6 6 6 7 8 8 8 8 9 8 8 9 9 9 10 11 11 12 12 13 14 14 14 15 15 16 17 18 17 17 19 18 18 17 20 18 18 18 17 17 17 16 17 19 19 21 22 19 14 15 18 18 19 20 20 19 19 18 18 16 16 17 17 16
13 14 14 15 14 15 14 13 13 13 12 10 11 10 9 8 7 7 7 7 6 6 6 6 6 7 7 8 8 8 8 8 9 10 10 11 11 11 11 12 13 13 14 14 14 15 15 18 19 18 19 20 19 18 19 21 19 20 21 18 17 17 18 19 19 19 20 20 19 19 14 17 18 18 18 19 19 18 18 17 17 17 17 18 17
14 14 14 14 13 14 13 13 12 11 11 10 9 9 8 8 7 7 6 6 6 6 6 7 7 7 7 7 8 8 8 8 9 10 10 11 11 11 12 12 13 12 13 15 17 18 18 19 19 20 20 20 21 20 19 22 20 23 21 20 18 18 19 18 19 20 19 20 17 17 18 14 16 19 16 16 18 17 17 15 14 14 15 14 14
14 14 14 13 13 13 12 12 11 11 10 9 9 8 8 7 7 6 6 6 6 7 7 6 6 6 7 7 8 8 8 8 9 10 10 10 10 10 10 12 14 15 16 16 17 17 19 19 20 21 21 20 19 22 23 19 21 20 21 18 18 19 19 18 17 17 18 16 20 14 16 17 15 16 17 18 19 18 16 14 15 14 14 13 14
13 14 13 13 13 12 12 11 10 10 10 10 9 9 8 7 7 6 6 6 5 5 5 6 6 7 7 8 8 8 8 8 7 7 8 9 9 11 13 14 15 15 16 18 17 19 20 21 20 21 23 29 32 28 28 25 19 17 18 18 17 15 18 15 17 14 16 16 16 15 14 16 17 16 17 16 19 18 15 13 14 14 13 13 12
14 13 13 12 12 12 12 11 11 11 10 10 9 9 9 8 7 6 6 5 5 5 5 6 6 7 7 7 7 6 7 7 9 14 14 11 12 12 13 14 14 15 16 16 17 17 19 16 19 28 31 32 33 35 34 34 35 28 19 16 17 16 17 17 16 15 15 16 17 12 17 16 17 17 16 18 19 19 20 17 15 13 12 13 12
13 13 13 13 13 13 12 11 11 11 10 10 8 9 8 6 5 5 5 5 5 5 5 6 6 6 7 6 6 6 7 7 13 14 16 19 15 14 14 14 15 15 15 16 18 17 17 20 17 21 25 25 24 31 32 34 33 34 37 36 33 23 17 16 14 15 15 15 17 14 16 19 20 17 17 17 16 18 18 16 13 10 10 10 11
14 14 13 13 13 13 12 12 11 11 9 8 8 7 6 5 5 5 4 5 5 5 5 6 6 6 6 6 6 7 8 11 15 16 18 19 18 14 13 14 13 13 15 16 15 17 19 17 19 15 17 21 21 21 26 31 32 33 35 34 34 35 34 26 17 11 12 13 14 15 15 19 18 17 18 15 16 17 18 14 12 10 10 10 9
14 13 12 12 12 11 10 10 9 8 8 8 7 6 5 5 5 5 5 5 4 5 6 6 6 6 5 6 6 8 9 12 15 17 18 19 21 19 13 13 13 15 16 16 18 19 17 19 18 18 17 26 22 20 21 21 26 32 33 33 33 35 34 38 35 26 19 17 18 16 16 14 17 17 16 17 16 17 16 12 9 8 9 9 10
12 12 11 11 11 10 8 8 8 8 8 7 7 6 6 6 5 5 4 4 5 5 5 6 6 6 5 5 6 8 10 12 16 17 18 20 21 19 14 14 15 15 16 18 18 18 20 17 18 21 20 18 19 22 21 21 19 18 18 18 18 24 31 36 36 37 31 21 19 19 17 18 20 19 19 17 17 16 16 15 11 10 9 11 11
10 10 11 11 10 8 9 8 8 8 8 7 7 6 6 5 6 5 4 5 5 5 5 5 5 5 5 5 6 8 9 15 16 18 18 20 21 20 13 14 14 16 17 16 17 20 17 18 21 20 19 21 18 21 22 20 19 18 19 20 20 21 17 20 22 19 18 17 18 17 17 19 20 20 19 18 18 17 16 15 15 13 10 11 14
9 9 8 8 8 8 8 9 9 8 8 7 7 7 6 6 6 5 4 4 4 4 4 5 5 5 5 6 6 9 9 15 17 17 19 19 23 14 12 14 15 15 16 15 19 16 17 19 17 19 23 20 24 33 29 23 20 21 21 20 19 20 19 19 28 26 21 15 16 16 16 19 23 21 21 19 17 17 15 14 11 9 9 11 13
9 10 9 9 9 9 9 10 9 9 9 8 8 7 7 6 5 4 4 4 4 5 4 4 4 4 5 6 7 8 8 12 16 17 19 21 17 12 13 13 13 14 15 18 15 17 17 15 17 22 21 22 28 33 33 30 22 21 22 22 20 19 19 15 25 31 31 33 34 35 34 34 34 33 32 34 25 19 14 14 13 8 10 13 13
9 9 10 9 9 9 9 9 10 9 9 9 8 7 6 5 5 4 5 4 4 5 4 4 4 5 5 6 7 8 9 12 17 17 18 20 18 13 12 12 14 14 16 15 15 16 17 27 28 23 23 24 30 33 32 27 20 19 19 20 21 19 18 16 14 17 27 29 32 31 30 31 33 34 34 32 31 24 16 16 11 8 11 11 13
11 10 10 10 9 8 8 9 9 9 9 8 7 8 7 6 5 5 4 4 4 4 4 4 4 4 5 6 10 10 9 10 14 16 18 19 17 12 12 12 14 16 16 17 18 15 16 21 28 27 26 27 33 32 33 27 20 18 19 20 21 21 19 16 17 16 14 13 14 15 17 23 24 21 21 32 32 28 20 17 12 12 12 11 11
10 10 10 9 8 8 8 8 8 8 8 8 7 6 5 5 5 5 4 4 3 3 3 3 4 5 5 6 6 7 7 8 10 16 18 19 20 14 11 12 15 17 17 16 16 18 19 17 21 27 31 32 32 34 33 34 25 20 18 18 19 23 17 15 16 15 15 15 15 14 16 15 15 16 17 18 20 20 19 17 15 13 13 13 12
10 10 9 9 9 9 7 8 9 7 7 7 7 6 5 5 6 5 4 3 3 3 3 3 5 6 5 5 5 6 6 8 10 16 17 18 20 19 12 13 13 14 15 15 16 18 18 18 17 24 32 33 34 35 36 36 33 24 19 19 20 23 23 17 19 23 17 15 14 13 13 12 13 12 14 16 14 14 14 15 14 13 13 14 13
10 10 11 10 9 8 8 7 7 7 7 7 7 6 5 5 5 5 4 4 4 4 4 4 4 4 4 5 4 5 7 11 10 13 17 19 20 22 15 13 16 15 16 15 17 17 18 18 18 25 33 34 35 36 36 34 35 22 21 29 35 36 27 19 16 14 13 13 12 12 12 12 12 13 12 13 12 11 12 11 12 13 14 14 15
12 11 11 11 10 10 9 10 8 6 6 7 7 7 6 5 5 4 4 3 5 5 5 4 3 3 4 3 3 4 7 7 13 12 16 19 21 21 23 19 24 17 15 15 17 17 17 18 19 29 34 36 35 34 34 35 29 20 30 32 33 35 28 16 14 13 13 12 12 12 12 12 12 11 12 12 12 13 12 11 12 13 14 14 16
11 12 11 10 10 9 9 9 7 7 8 7 6 6 6 6 5 5 6 5 4 4 2 1 2 2 3 4 4 5 6 6 10 15 15 20 21 22 22 24 24 17 16 15 15 17 17 17 22 37 34 33 34 33 32 30 22 30 31 34 33 26 14 12 12 12 13 13 12 11 11 11 11 11 11 10 11 12 11 11 12 14 14 13 14
12 12 11 10 9 9 8 7 8 7 7 7 7 6 6 6 6 6 5 5 4 3 2 1 1 1 3 4 5 6 6 7 8 11 18 20 21 22 23 25 24 25 16 14 16 16 24 34 35 31 31 31 32 31 26 26 29 30 31 31 29 11 9 9 10 10 11 10 11 11 11 11 12 12 11 11 12 11 10 9 10 11 11 13 13
13 12 10 10 10 10 10 8 8 8 8 6 6 6 7 7 6 6 6 5 4 3 2 2 0 1 3 4 5 6 7 7 8 9 12 14 16 21 24 23 24 25 23 18 25 29 29 29 30 29 26 26 21 17 16 18 27 28 26 24 14 14 10 9 10 12 11 11 10 11 11 10 10 11 12 12 12 12 10 11 10 11 10 11 11
13 11 11 10 10 10 10 8 8 7 7 6 5 5 6 6 6 6 5 5 5 4 3 2 1 1 2 4 5 6 6 7 8 9 8 10 11 13 15 15 20 20 15 13 17 16 20 20 19 24 22 27 27 25 22 22 17 16 14 13 13 13 15 11 10 11 12 11 11 11 10 10 9 10 11 11 12 11 10 10 10 10 9 9 11
14 12 12 11 10 11 9 11 10 7 7 7 7 6 6 5 6 6 6 6 5 5 3 2 1 1 2 4 4 5 6 7 8 9 10 11 11 11 12 12 12 11 12 14 14 15 15 17 18 14 15 14 15 13 14 12 13 13 13 13 13 14 17 22 20 12 12 11 11 10 9 8 9 10 11 12 12 11 10 9 10 11 10 9 11
12 13 11 10 10 9 9 9 8 8 7 6 5 6 6 6 5 4 3 4 4 4 3 2 1 0 2 3 4 5 6 7 7 13 14 18 15 14 12 12 13 12 16 25 17 13 11 12 12 14 13 15 14 13 14 15 15 13 14 13 13 14 14 13 13 13 12 11 11 11 11 10 10 10 10 11 10 9 7 8 9 10 11 10 14
11 12 10 10 9 9 8 8 7 7 7 6 5 3 2 6 4 5 6 8 6 4 4 3 1 0 1 2 2 3 4 6 15 18 18 18 20 21 20 20 20 17 22 25 17 11 12 13 13 13 14 14 15 15 15 15 17 18 16 16 14 13 13 13 13 13 13 13 13 12 11 10 10 10 10 12 11 10 9 10 11 9 11 12 14
9 9 10 8 9 8 8 8 7 7 7 7 6 6 5 5 8 8 7 6 5 6 6 5 4 3 1 0 3 7 10 13 15 16 17 18 19 20 20 19 20 22 23 16 11 9 11 13 14 13 14 14 15 16 15 13 15 17 17 15 13 14 14 13 13 14 15 14 13 12 12 11 10 9 10 10 10 10 9 8 9 10 11 13 14
11 9 9 9 10 9 8 8 7 7 6 6 6 7 7 6 6 9 8 6 7 7 7 6 6 5 5 5 4 3 9 13 15 15 16 17 18 19 19 19 18 21 22 20 8 8 9 11 13 14 14 14 14 13 14 13 13 12 14 15 14 13 14 14 15 14 14 14 14 14 13 12 10 9 10 10 10 10 10 10 10 11 12 11 13
12 11 8 8 8 11 8 7 7 7 7 7 6 6 7 7 8 7 6 4 6 8 8 8 8 6 7 8 10 10 10 13 15 15 16 17 19 19 18 18 18 20 18 11 8 10 11 11 12 13 15 14 14 13 14 14 14 14 12 13 15 16 15 16 17 14 13 13 13 13 14 14 12 9 9 9 9 10 10 11 12 11 11 11 12
18 12 11 11 10 7 7 7 7 7 6 6 5 4 3 4 5 6 6 4 3 2 2 6 8 8 9 10 11 12 12 14 14 15 16 18 19 18 17 11 15 18 17 9 10 9 10 11 12 13 13 14 14 14 14 13 13 15 16 15 15 16 16 16 14 13 12 13 13 13 14 14 14 12 10 9 9 10 11 11 11 11 10 11 11
16 16 24 16 8 9 7 7 6 5 6 5 5 4 5 4 4 5 5 6 4 2 0 1 4 7 6 7 11 12 12 13 13 14 16 17 17 16 13 7 10 11 10 8 9 9 10 11 12 13 13 14 14 14 15 15 14 13 15 14 14 14 15 14 14 13 13 13 13 13 13 14 14 13 13 11 10 10 10 10 10 10 11 11 10
12 12 10 11 8 8 8 7 6 6 7 6 5 5 5 5 5 5 5 4 4 3 2 0 1 4 6 9 12 11 12 13 11 12 13 15 15 14 8 8 8 8 8 9 9 10 9 10 11 12 12 13 14 13 12 14 14 12 14 13 14 13 13 13 14 14 13 13 13 14 14 13 12 13 13 13 13 12 11 10 10 9 11 10 7
12 9 9 8 8 8 8 8 6 6 6 5 5 5 4 4 3 4 3 3 2 1 1 0 1 3 5 5 10 11 12 12 11 10 12 14 16 10 6 6 6 8 9 10 10 10 11 11 10 11 12 13 13 13 14 14 14 13 13 14 15 15 12 12 15 15 14 13 13 12 13 12 13 13 12 13 13 11 9 9 9 9 10 10 7
10 10 11 13 15 10 8 7 8 10 6 5 4 4 4 4 4 4 3 2 2 2 1 1 3 1 3 3 9 6 9 11 13 12 14 15 11 8 6 5 7 7 9 9 10 10 11 12 12 11 13 13 14 14 13 13 13 12 13 15 16 13 21 18 17 15 14 12 13 13 12 13 12 13 13 12 13 13 11 9 8 8 9 9 5
9 18 20 22 14 9 8 8 8 7 6 5 4 4 4 5 4 4 3 2 2 2 1 1 1 1 1 2 5 6 8 6 7 6 6 5 5 5 6 6 5 7 8 9 9 9 10 12 12 11 12 12 13 13 13 13 13 12 14 16 15 15 15 13 14 12 11 12 13 12 12 12 12 12 12 12 13 13 13 10 8 7 7 6 5
10 11 14 19 10 10 6 6 7 7 5 6 6 5 5 5 5 5 4 4 3 3 2 2 2 1 0 1 4 1 2 2 1 3 3 5 5 5 4 5 6 7 8 10 9 10 11 11 11 11 12 13 13 13 13 13 13 13 13 15 16 15 15 13 13 13 12 13 11 12 12 13 12 12 12 11 12 13 14 10 7 6 7 5 4
9 9 11 12 12 10 7 6 6 6 6 5 5 5 5 5 4 4 4 4 3 3 3 3 2 1 1 4 4 3 1 1 1 1 3 3 4 4 5 5 6 7 7 8 9 10 11 12 13 11 11 13 14 13 13 13 13 12 13 15 16 13 12 13 14 13 14 14 13 13 12 12 12 12 12 12 14 14 13 10 6 5 6 4 4
11 11 13 11 12 8 8 6 6 8 5 4 5 5 5 4 4 4 4 3 3 3 3 3 2 1 3 1 3 3 2 1 1 2 2 2 3 4 4 5 4 5 6 7 9 10 11 11 13 13 12 12 13 14 13 12 12 13 14 15 17 13 12 15 15 15 14 12 12 13 13 13 13 13 14 15 13 13 13 10 6 5 5 4 2
14 10 12 12 10 8 10 9 8 8 6 5 4 4 4 5 4 4 3 3 3 3 3 3 2 1 1 1 3 3 0 0 1 1 1 2 3 3 4 5 6 6 7 7 8 8 9 10 12 11 12 13 14 12 12 12 12 12 14 16 16 16 16 16 16 16 14 14 12 13 13 13 13 12 12 12 13 13 12 11 6 4 4 3 1
19 16 10 7 8 8 8 8 9 6 5 5 6 5 4 3 4 3 4 3 3 2 3 2 1 1 0 0 1 1 0 0 1 1 2 3 3 4 4 5 6 7 8 8 8 8 9 10 11 12 12 13 14 14 14 12 11 12 14 16 16 17 17 17 16 16 16 14 13 13 13 13 13 12 12 12 11 12 12 11 6 3 3 3 1
13 11 11 11 8 8 8 7 6 6 6 6 5 4 3 4 3 3 3 3 3 3 3 2 1 1 0 0 0 0 0 1 2 2 1 2 3 4 4 6 6 8 8 8 8 9 9 10 11 12 13 13 14 15 15 14 12 11 12 15 16 17 17 18 17 15 15 16 15 14 14 13 13 12 12 12 11 11 11 10 7 4 3 3 2
10 10 8 9 9 6 7 7 5 7 7 7 7 6 4 2 3 3 2 2 3 3 3 2 1 1 1 0 0 0 0 1 1 1 2 2 3 4 4 5 6 7 7 8 9 9 10 10 10 11 13 13 14 14 15 16 12 10 13 14 16 16 15 16 15 15 15 16 14 13 14 14 13 13 15 13 12 11 11 11 8 4 3 3 3
10 8 10 7 8 7 5 6 7 9 9 8 6 6 4 4 3 2 2 2 3 3 2 1 1 1 0 0 0 0 1 1 1 1 2 3 3 4 4 5 6 7 8 8 8 9 10 11 11 11 12 13 14 15 15 14 12 11 12 14 16 18 17 17 15 15 15 15 15 13 12 12 13 13 15 13 11 11 11 10 7 5 3 3 3
8 8 8 7 8 8 8 6 8 8 5 5 5 4 4 4 3 2 2 2 2 2 2 1 1 0 1 0 0 0 1 1 2 2 2 3 3 3 4 5 6 7 8 9 8 9 9 10 10 11 12 13 14 14 15 15 12 13 13 13 16 20 25 25 16 17 16 14 13 14 14 13 12 12 12 13 12 11 11 10 7 4 3 3 3
9 9 9 8 7 8 7 7 5 6 6 5 5 5 4 4 3 2 2 2 2 2 2 1 1 1 0 0 0 0 1 3 2 2 2 3 3 3 4 5 6 7 8 8 9 9 10 10 11 11 11 12 13 14 15 15 13 15 16 14 20 33 32 30 20 20 23 15 13 14 14 14 13 13 13 13 12 11 10 10 9 4 3 2 3
8 7 7 8 7 6 5 6 6 6 5 5 5 5 4 3 2 2 2 3 2 2 1 1 1 1 0 0 0 0 1 1 1 2 3 3 3 3 4 5 6 7 8 8 9 9 9 10 11 11 12 12 14 13 15 13 12 17 17 17 26 32 33 32 28 31 25 15 15 14 15 14 14 12 10 10 11 12 11 9 9 8 3 4 4
7 8 7 7 7 7 7 6 6 6 5 5 5 5 5 3 2 3 3 3 3 3 2 1 1 1 0 0 0 0 1 1 2 2 3 3 3 3 4 5 7 8 8 9 9 10 10 10 10 11 12 13 13 14 14 11 13 19 25 27 27 33 34 33 26 30 35 23 15 15 16 17 15 14 13 12 11 11 13 12 10 9 8 3 3
Wind_Direction
167 169 164 162 159 165 166 166 167 166 166 172 176 182 185 191 198 200 200 209 208 218 222 231 237 240 245 249 254 258 261 262 259 263 263 265 265 266 270 268 267 266 266 267 264 264 264 266 266 265 267 275 272 269 267 264 261 259 256 256 257 254 255 257 261 268 272 265 272 273 276 279 278 273 276 275 273 276 278 274 273 269 265 258 261
170 166 162 160 162 163 163 164 165 165 168 173 180 181 186 191 193 195 206 209 211 220 224 230 236 238 241 246 249 252 255 257 260 260 261 264 265 264 265 268 267 267 268 266 265 263 265 265 267 273 276 278 272 267 265 263 260 259 258 255 255 255 251 253 260 264 274 273 270 270 274 272 276 270 268 268 268 267 267 266 264 263 263 267 266
162 159 157 159 164 160 160 163 164 167 170 175 182 182 186 188 187 196 202 206 211 217 225 230 235 238 244 247 248 250 251 255 256 258 261 263 267 267 265 266 267 268 267 268 268 268 267 268 270 275 278 272 271 267 264 263 260 258 258 258 258 257 255 252 258 264 269 273 270 275 273 273 267 274 274 274 270 264 262 264 264 265 262 257 258
160 156 156 161 161 160 164 163 164 169 173 178 181 183 182 183 186 194 200 206 212 218 222 230 235 240 243 246 247 250 252 256 256 258 261 262 265 266 266 265 265 267 268 268 267 268 269 272 274 279 279 271 269 266 264 262 261 259 258 257 258 259 257 256 255 262 268 273 268 266 273 274 273 275 269 269 272 269 262 260 262 263 264 266 264
156 158 159 158 162 163 164 164 167 172 175 178 180 179 180 179 184 192 196 206 212 218 227 226 233 238 242 245 251 254 256 259 263 263 264 262 263 266 267 267 267 268 269 271 274 275 273 274 279 277 272 267 269 268 265 263 261 260 259 258 258 256 256 255 257 257 266 269 274 265 269 270 271 269 270 271 271 271 272 271 271 273 275 274 272
158 159 161 161 165 165 165 165 170 172 174 175 176 176 175 181 184 188 196 207 213 221 227 234 233 238 245 252 256 261 263 263 264 264 265 267 266 268 271 273 274 275 275 274 273 273 276 278 279 273 268 265 264 266 265 264 262 259 259 259 257 257 256 257 256 259 260 267 273 278 263 271 273 266 262 257 257 262 265 263 264 264 265 263 259
162 162 164 162 163 165 165 165 165 168 170 170 167 170 176 180 184 188 192 202 214 222 228 232 238 242 250 256 259 262 265 266 265 264 266 267 271 274 277 277 274 274 277 279 281 278 274 275 267 264 259 258 262 260 260 261 259 259 255 257 257 257 257 257 258 259 262 265 266 268 275 266 269 277 282 278 268 259 260 260 258 255 256 258 262
162 162 162 162 162 163 162 160 159 162 162 162 164 169 171 175 180 184 192 204 214 223 227 233 241 245 252 256 261 263 265 265 265 267 270 271 275 276 277 281 281 279 275 271 270 266 266 262 259 254 251 247 247 255 254 255 256 256 253 250 253 256 255 256 254 258 258 260 265 266 272 276 269 264 269 275 274 265 253 255 263 264 263 263 259
160 162 161 160 160 158 152 154 156 154 156 161 164 169 170 175 177 181 190 203 215 224 234 240 246 252 254 256 260 263 265 266 264 266 274 280 279 282 283 281 278 275 276 272 268 267 264 264 259 259 255 255 252 252 257 254 256 255 253 251 249 254 255 255 256 252 259 259 262 263 267 268 270 267 263 260 269 273 268 251 252 255 260 266 265
161 160 162 161 155 153 150 151 153 155 159 164 167 168 174 174 175 180 192 206 216 228 235 245 248 251 256 258 262 267 269 267 263 266 272 280 286 287 287 284 280 278 275 273 272 271 270 268 270 267 268 266 263 262 264 265 261 256 253 246 248 249 247 249 249 247 253 254 255 257 266 260 264 266 262 256 259 271 271 260 257 260 263 263 266
161 162 162 158 153 151 151 153 154 158 162 163 166 167 167 166 169 179 190 204 218 230 238 242 245 247 252 261 270 271 270 268 271 277 283 289 291 291 288 284 282 280 279 282 285 283 286 283 280 282 280 282 279 277 274 273 270 269 262 261 259 249 248 248 239 236 238 246 251 246 251 262 262 269 271 267 264 269 274 261 255 255 257 270 273
163 163 160 154 154 153 154 153 156 158 157 162 157 156 154 157 165 176 189 205 218 225 237 244 249 254 255 264 270 271 272 273 279 284 290 293 294 293 289 288 286 286 290 289 289 291 290 290 289 285 285 282 282 280 277 276 274 273 272 272 273 266 258 255 253 242 230 237 246 244 242 253 257 259 265 263 266 269 269 262 259 256 265 268 267
162 159 154 152 153 154 151 150 149 148 148 145 144 142 150 161 170 181 196 203 212 223 236 243 248 254 260 266 270 275 276 279 285 290 296 296 297 298 293 292 291 292 291 289 290 289 293 293 293 290 287 285 284 279 278 278 275 274 273 273 272 272 270 266 261 262 267 263 258 255 249 252 259 260 255 261 265 273 286 278 271 275 275 274 273
157 155 148 148 149 146 141 137 137 138 136 138 145 150 161 174 177 184 185 197 213 228 235 245 250 252 258 269 275 275 277 282 290 297 300 301 301 301 297 296 294 290 290 289 288 291 289 286 293 292 288 284 283 283 282 278 277 274 271 269 268 269 271 271 267 265 264 263 264 264 262 257 254 259 258 259 267 271 277 283 292 286 281 276 287
145 146 143 146 140 136 134 134 132 136 139 145 148 158 167 174 178 185 189 200 209 221 233 237 247 253 262 267 271 278 279 285 296 302 304 304 304 306 301 298 294 292 288 284 285 287 282 288 287 284 288 289 283 284 283 280 276 273 271 269 266 266 259 262 257 255 253 249 251 251 259 258 256 255 257 256 259 264 265 273 277 278 285 292 286
138 135 134 135 133 134 132 135 136 140 144 148 154 163 170 176 178 183 188 204 215 228 242 243 254 256 259 263 266 275 280 290 300 305 306 307 309 308 302 299 296 292 286 285 288 284 288 286 286 290 290 286 290 290 287 284 280 277 274 272 270 267 261 259 254 251 249 244 248 249 252 254 250 245 247 251 255 257 264 266 261 263 271 274 271
144 145 141 137 139 142 142 141 143 146 150 153 159 166 168 174 177 178 188 203 213 224 230 245 250 257 262 261 268 274 281 292 301 306 308 309 311 306 303 299 294 291 290 291 288 293 291 287 291 295 294 294 295 295 293 290 284 279 275 274 272 271 269 262 260 256 255 252 253 261 263 259 257 256 253 247 245 248 258 260 257 257 263 270 272
140 140 142 141 139 142 144 142 144 148 153 159 161 163 162 164 170 181 186 198 216 218 231 248 251 249 253 259 263 273 280 288 299 306 308 308 311 309 306 301 297 297 298 294 295 292 291 296 299 298 297 295 296 296 294 293 286 282 280 276 275 271 270 267 257 257 251 255 258 259 263 262 259 256 256 256 254 252 252 255 260 255 254 258 272
153 148 140 135 138 135 134 138 141 147 153 157 157 155 159 164 165 174 195 206 220 223 231 245 247 258 255 259 270 279 282 289 300 306 307 309 312 310 308 305 302 302 305 304 303 298 298 301 301 300 299 297 298 298 297 297 291 287 286 285 282 278 275 274 268 262 255 250 247 250 254 257 256 252 249 249 251 252 250 254 260 255 259 264 269
130 122 121 126 126 128 133 133 141 148 147 144 143 147 148 157 168 180 193 203 214 223 226 237 255 265 266 261 265 275 285 290 296 303 308 311 313 312 307 307 307 307 308 307 307 307 306 304 303 302 303 301 300 299 297 294 289 281 275 273 273 272 273 273 266 260 258 251 250 251 257 263 261 250 239 239 241 239 240 240 239 241 249 256 257
121 121 120 117 122 124 127 136 136 136 139 142 140 144 157 164 170 178 188 213 211 224 227 245 256 258 265 272 274 281 285 295 298 304 308 311 313 316 311 309 307 306 307 307 308 308 308 307 307 305 303 302 301 300 298 296 295 289 278 267 263 267 272 267 267 264 260 255 250 251 253 258 262 260 254 242 233 231 232 232 232 232 234 242 246
113 116 123 124 123 123 127 127 127 134 138 139 142 153 163 164 165 170 194 199 201 218 231 239 250 269 274 279 281 291 303 303 306 305 307 310 312 315 315 310 312 313 311 307 307 305 305 305 305 304 304 303 304 305 305 303 301 297 286 283 280 276 270 263 265 264 257 252 247 247 250 247 255 258 255 250 240 235 233 229 227 226 227 230 233
131 131 131 134 132 134 134 140 141 142 145 147 147 151 156 160 170 184 199 199 204 215 226 227 250 271 279 295 306 311 311 306 309 308 309 312 314 316 316 315 317 316 312 306 307 305 303 301 297 301 307 309 310 310 308 308 308 299 296 294 287 275 269 262 256 260 256 242 241 242 243 245 244 245 248 251 247 243 239 231 229 228 228 232 233
128 126 128 125 124 124 129 137 140 143 145 145 150 153 161 163 175 189 192 199 193 203 206 212 259 277 310 320 317 313 315 313 311 310 312 315 318 319 320 320 320 318 314 308 306 304 303 302 306 311 313 313 312 311 312 311 307 306 307 309 305 293 272 254 250 254 256 251 247 241 244 246 250 252 250 250 251 244 239 232 230 231 231 236 235
125 127 123 123 124 129 131 137 143 147 151 154 156 161 167 168 181 188 186 198 189 188 196 202 247 308 317 317 316 315 316 313 310 311 316 317 321 324 325 324 323 322 318 311 307 305 308 311 312 312 311 312 313 313 312 310 311 313 314 319 321 290 274 254 252 253 253 248 237 240 241 242 245 248 246 249 251 252 248 243 239 240 239 242 246
133 129 126 128 132 135 135 138 147 151 157 163 168 167 166 176 185 176 185 183 175 180 183 187 263 327 319 315 316 317 317 315 312 307 301 311 325 327 327 327 325 323 321 313 311 313 314 313 314 313 311 311 315 315 313 312 313 315 318 325 330 317 279 250 248 251 249 247 241 236 239 240 244 240 238 240 243 245 246 246 244 244 240 245 252
128 130 134 132 132 140 141 150 155 156 166 162 173 176 171 187 183 176 181 170 169 171 170 150 88 336 320 316 317 320 317 317 315 307 305 323 329 328 329 328 326 325 322 316 321 321 318 317 316 317 315 313 313 315 315 313 316 320 323 326 324 322 320 292 251 246 249 248 247 241 240 242 245 256 256 251 247 244 238 242 245 252 250 254 259
142 141 139 139 144 153 153 153 153 155 168 168 167 174 182 189 181 185 178 170 164 164 146 135 109 334 313 314 312 317 318 317 313 311 327 333 332 331 330 327 329 330 326 325 333 323 314 317 319 317 316 316 316 317 317 317 317 320 322 324 323 321 317 318 312 266 252 250 250 250 246 244 240 243 248 246 246 244 237 238 245 257 254 262 263
133 134 138 138 145 151 147 153 159 155 159 168 179 176 176 180 182 161 152 161 164 148 139 123 120 249 297 300 316 316 317 312 304 327 333 336 336 337 337 338 336 335 334 339 336 324 320 326 326 327 327 325 324 321 328 331 329 326 326 328 328 325 325 327 327 326 309 275 252 246 248 242 246 243 250 254 254 253 241 248 248 254 263 253 256
129 140 143 143 142 144 139 147 149 145 152 158 160 148 186 192 176 167 171 182 172 143 121 129 132 165 272 303 314 304 303 305 324 335 337 338 339 340 343 343 342 342 346 348 342 331 334 332 330 329 328 329 330 329 324 329 337 336 332 330 327 324 324 324 324 322 322 317 304 276 252 244 241 239 242 250 254 253 244 241 253 249 257 258 258
131 131 140 141 146 135 140 142 147 147 151 156 157 152 158 193 199 180 170 161 146 128 107 87 55 52 53 113 334 333 325 330 338 341 342 342 343 346 349 349 348 351 353 353 343 340 336 337 334 330 329 327 327 328 325 320 326 332 333 329 324 322 321 321 320 320 318 311 303 300 284 257 247 241 246 247 253 256 256 245 249 254 255 257 257
140 144 132 133 140 138 135 141 140 142 150 158 160 157 160 156 178 191 168 152 146 124 96 71 54 56 45 36 18 342 344 344 346 347 346 345 349 350 352 352 354 357 357 357 338 336 335 335 333 330 327 327 325 321 327 325 319 317 322 326 326 325 324 321 319 317 311 310 311 310 308 295 259 245 245 249 252 257 259 262 256 257 256 255 251
130 132 131 127 131 140 133 135 143 150 153 155 159 167 164 166 163 165 161 133 137 118 80 63 50 55 40 33 21 10 357 353 353 352 353 354 355 357 357 357 0 359 355 353 353 341 340 332 328 327 324 321 325 322 321 323 326 327 322 321 321 322 320 317 315 310 308 309 310 309 306 305 296 266 252 251 254 257 259 258 259 255 256 257 254
121 141 141 143 140 137 137 142 146 148 151 149 152 156 165 168 158 148 146 140 146 143 71 46 44 42 37 32 18 10 2 1 358 359 1 2 1 2 -0 351 353 1 9 357 350 340 333 329 328 325 321 318 318 324 322 314 318 325 326 321 318 319 317 314 315 312 312 313 312 308 307 307 310 302 276 259 252 255 256 258 259 260 260 255 248
97 145 149 148 131 139 134 136 133 128 132 134 136 140 150 151 140 145 151 147 148 147 206 323 2 35 40 26 10 8 3 5 5 7 7 8 7 3 355 353 354 349 355 357 343 334 328 327 323 323 322 320 318 316 324 324 313 317 320 317 312 314 315 316 315 316 315 314 311 308 308 309 308 305 301 282 263 254 253 256 258 256 259 256 239
136 136 143 147 135 130 133 136 142 142 141 140 141 143 149 154 146 139 135 135 144 155 173 139 286 324 34 32 16 4 358 6 7 13 13 16 16 12 14 5 355 351 343 341 337 330 321 318 318 316 315 315 315 313 312 316 319 319 322 322 322 315 314 314 317 318 316 311 306 304 304 302 302 304 303 296 275 260 258 259 261 263 259 248 236
141 139 145 148 141 133 129 129 128 131 130 123 137 142 138 127 113 114 107 111 111 116 112 1 351 6 34 31 8 349 349 357 358 13 19 20 21 24 19 5 351 338 339 334 329 326 324 319 316 313 314 312 314 316 312 309 313 315 323 329 324 321 314 320 323 322 317 311 305 302 302 300 303 303 301 300 297 281 265 263 261 262 261 246 243
133 138 135 133 120 125 116 120 133 128 126 135 134 133 129 120 116 109 113 113 128 119 97 68 54 69 32 356 352 348 341 345 355 10 12 12 13 11 0 351 353 344 335 330 329 323 320 320 320 314 313 311 310 312 311 309 306 310 324 328 323 312 321 321 320 317 312 311 312 310 306 304 302 301 302 301 304 304 289 269 260 261 258 239 238
128 144 142 142 139 131 125 126 126 132 134 137 137 139 133 128 122 120 125 125 134 124 120 83 59 63 29 344 337 332 357 358 6 354 344 347 356 358 351 351 343 339 333 329 321 321 319 319 316 309 309 309 306 307 312 311 308 306 322 329 325 320 321 320 322 320 312 309 311 310 308 303 300 299 300 303 303 301 290 267 255 254 255 238 225
129 135 139 139 132 132 114 114 122 128 141 140 144 143 134 136 141 142 145 149 151 148 147 140 146 128 46 334 283 348 12 331 310 319 323 340 346 346 347 345 343 338 332 330 323 318 317 317 315 308 307 308 314 311 307 307 310 309 317 327 327 323 324 323 325 326 325 321 307 306 305 303 299 300 299 297 294 296 297 277 259 252 257 234 231
116 127 140 140 131 125 108 111 125 132 135 138 140 142 137 133 130 139 145 143 142 144 144 152 145 136 200 246 310 59 141 261 288 304 314 323 325 333 341 338 335 330 328 323 322 316 316 315 316 301 302 311 316 312 311 311 313 313 322 329 329 316 318 327 328 326 322 321 318 311 306 304 304 305 302 299 296 294 292 281 265 257 267 252 222
129 131 135 135 131 118 125 123 130 139 127 126 136 135 130 132 141 143 146 145 148 148 146 148 143 151 265 320 29 73 110 231 273 301 311 313 314 329 331 325 325 321 320 316 317 313 315 317 314 315 308 308 314 312 310 309 312 315 326 333 332 320 327 334 333 327 323 314 313 315 313 311 308 305 298 296 294 295 296 289 262 267 261 268 225
135 114 123 123 134 133 140 140 138 141 138 140 122 109 114 126 138 139 140 141 149 153 145 139 135 141 270 349 33 62 102 268 287 292 306 316 322 326 324 324 322 318 314 310 307 308 310 313 315 317 321 321 316 307 310 302 303 311 328 335 333 332 334 334 334 333 332 324 314 314 314 312 311 305 298 294 293 293 294 292 282 264 267 268 211
122 119 100 102 111 103 123 134 141 139 132 111 105 116 125 127 131 131 136 138 155 149 138 134 139 137 198 346 30 51 62 312 293 308 305 321 328 331 322 322 319 321 320 317 319 317 316 315 317 316 317 320 320 319 317 309 306 313 332 337 338 337 339 339 336 336 333 328 322 320 318 316 309 302 296 294 294 296 301 303 290 277 263 268 170
110 124 126 132 128 123 127 126 118 116 114 118 119 117 127 135 135 135 137 147 151 141 131 133 136 164 179 161 60 77 16 293 292 282 309 325 329 323 318 317 320 323 320 319 320 322 319 318 317 320 320 322 325 325 320 316 315 313 333 342 342 342 344 341 337 331 329 327 325 324 319 315 312 306 299 298 298 296 297 302 297 281 261 260 207
127 125 123 119 125 118 128 123 123 132 136 134 133 141 138 124 125 136 145 147 148 139 137 135 148 153 166 139 146 86 330 287 288 290 302 320 322 319 313 316 315 316 314 316 316 318 320 319 322 319 321 322 324 326 327 323 309 311 336 344 347 344 343 340 336 334 334 333 327 320 319 316 311 308 308 307 301 298 293 293 288 267 251 225 232
123 116 118 115 120 116 113 124 130 137 133 135 129 133 131 132 125 128 137 138 134 123 127 128 147 142 153 149 140 161 289 290 286 298 300 298 302 307 315 318 317 319 322 317 318 323 325 324 323 321 321 322 323 325 327 327 318 327 341 346 348 349 349 346 343 342 338 335 331 326 319 314 314 312 313 311 308 306 306 297 281 245 244 225 213
114 117 118 112 114 121 130 128 131 134 115 120 121 124 119 125 131 146 150 144 129 122 124 127 144 152 167 169 130 224 277 264 282 276 295 296 307 311 320 320 325 324 319 320 324 327 326 322 322 321 323 325 327 330 331 331 324 342 341 346 350 352 352 352 347 349 345 339 335 335 332 327 314 311 311 315 313 312 310 310 291 233 226 216 212
127 131 133 135 126 129 132 133 130 129 130 125 122 123 123 128 142 149 153 139 129 129 134 138 145 167 180 157 161 224 254 262 274 289 296 297 298 306 321 327 324 322 323 322 322 327 326 326 326 323 323 325 328 332 335 329 329 347 344 344 349 353 354 357 355 355 351 347 344 342 341 337 326 316 318 319 317 314 309 312 316 275 200 189 205
119 119 116 120 120 123 119 125 124 114 116 126 125 121 126 128 142 155 147 138 129 134 142 145 159 173 158 159 135 231 272 285 295 295 298 294 300 318 323 331 331 331 328 324 323 325 327 329 327 324 326 327 331 330 334 321 331 346 346 343 351 357 357 357 358 358 358 353 350 348 346 342 336 322 322 316 324 321 325 323 326 324 283 186 173
110 120 125 123 116 119 123 126 123 123 127 126 125 127 138 147 153 148 147 147 145 144 144 155 161 173 204 179 174 237 255 268 273 285 279 292 302 318 330 336 334 333 327 326 326 326 327 330 330 327 328 330 331 330 329 320 340 345 342 343 357 3 1 0 2 2 1 359 356 354 354 351 346 341 333 339 335 337 336 332 332 336 330 281 178